Location: *
(34.6903°N, 135.5184°E)
Time: 04:38:09
(UTC+00:00)

Cosmos 2151 Rocket - Pass Details

Date: 22 September 2019
Orbit: 618 x 642 km, 82.5° (Epoch: 18 October)

Event Time Altitude Azimuth Distance (km) Brightness Sun altitude
Rises 20:01:40 0° 357° (N) 2,909 7.1 -9.9°
Reaches altitude 10° 20:03:56 10° 2° (N) 2,002 6.3 -9.5°
Maximum altitude 20:08:19 59° 82° (E) 725 4.3 -8.6°
Drops below altitude 10° 20:12:41 10° 162° (SSE) 2,004 6.3 -7.7°
Sets 20:14:57 0° 166° (SSE) 2,911 7.1 -7.2°
